Aérodrome :
LOGIN :

S'inscrire | Disclaimer

   EN    FR    IT 

 










Légende :    VFR   VFR Marginal   IFR   IFR Intensif   IFR Très Intensif
Visi : 
Plafond : 
>= 8 km
>= 3000ft
5 à 8 km
1000 à 3000 ft
1500m à 5 km
500 à 1000 ft
800 à 1500m
200 à 500 ft
< 800m
< 200 ft
Symboles :   Orages  Brouillard  Fortes neiges  Fortes précipitations  Vent > 20 kt
SIGMETs :   Divers  Orages  Givrage  Turbulence  Onde Orograph.  Cendres Volcan.







- Altitude de l'aérodrome : 545 ft
- Code IATA : PZY


LZPP - Piešťany

DERNIER METAR :
  • 252100Z AUTO VRB01KT 9999 NCD 22/19 Q1024

METARs EXPIRÉS :
  • 252030Z AUTO 10006KT 9999 NCD 24/19 Q1024
  • 252000Z 10004KT CAVOK 24/20 Q1024
  • 251930Z 11004KT CAVOK 25/20 Q1024
  • 251900Z 11003KT CAVOK 27/20 Q1024
  • 251830Z 18003KT CAVOK 29/19 Q1023

TAF TAF LZPP
Valide du 25 à 18h jusqu'au 26 à 03h UTC


251700Z 2518/2603 17006KT CAVOK
BECMG 2519/2521 VRB02KT
Pas de NOTAMs connus pour ce terrain.



MET'MAP, la Météo Aéronautique d'un coup d'oeil ! - Copyright ORBIFLY Décembre 2007 - Disclaimer

ORBIFLY MET'MAP TEAM :

Programmation & Développement : Alexandra Zaïnal
Conception & Développement : Baudouin d'Aumeries
Co-Programmation & Développement : Marc-Olivier Méhu
Soutien technique & logistique : Manuel Goepfert

Contact : metmap@orbifly.com




SOURCES & CREDITS :

   NOAA